Total_Precipitation_Accumulation
0.27 0.49 0.63 0.56 0.32 0.21 0.01 0.00 0.00 0.01 0.04 0.05 0.03 0.02 0.15 0.11 0.02 0.03 0.01 0.02 0.05 0.07 0.13 0.27 0.58 0.87 1.10 1.22 1.03 0.91 0.75 0.50 0.58 0.92 0.83 0.85 0.64 0.65 0.73 0.65 0.69 0.84 0.93 1.41 1.96 2.24 2.00 1.19 0.94
0.59 0.71 0.79 0.58 0.35 0.12 0.01 0.00 0.00 0.02 0.01 0.04 0.06 0.06 0.15 0.11 0.01 0.03 0.06 0.05 0.02 0.05 0.13 0.20 0.51 0.94 1.09 1.30 1.46 1.18 0.90 0.68 0.75 0.94 1.12 1.22 0.82 0.87 0.81 0.87 0.94 0.97 1.19 1.59 1.91 2.19 1.54 1.06 0.87
0.82 0.93 1.02 0.78 0.35 0.08 0.00 0.00 0.00 0.00 0.01 0.02 0.05 0.06 0.17 0.10 0.04 0.02 0.03 0.06 0.02 0.08 0.14 0.24 0.57 0.80 1.11 1.24 1.52 1.69 1.24 1.13 0.94 1.06 1.20 1.05 0.95 0.88 0.83 0.85 1.12 1.24 1.40 1.48 1.62 1.77 1.32 1.33 0.97
1.08 1.32 1.64 0.86 0.42 0.05 0.00 0.00 0.00 0.00 0.03 0.04 0.11 0.18 0.14 0.15 0.07 0.04 0.04 0.05 0.04 0.11 0.19 0.41 0.70 0.94 1.11 1.43 1.51 1.78 1.75 1.46 1.36 1.10 1.04 0.92 1.03 1.11 1.02 1.11 1.32 1.37 1.63 1.65 1.53 1.42 1.36 1.85 1.28
1.08 1.79 1.32 0.94 0.43 0.11 0.00 0.00 0.00 0.00 0.02 0.07 0.16 0.27 0.27 0.19 0.23 0.09 0.07 0.06 0.08 0.16 0.22 0.38 0.79 1.12 1.31 1.56 1.58 1.67 1.91 1.70 1.73 1.48 1.06 0.95 1.03 1.01 1.06 1.06 1.39 1.32 1.37 1.29 1.28 1.21 1.29 1.70 1.67
1.52 1.59 1.58 0.82 0.35 0.11 0.03 0.00 0.00 0.00 0.00 0.02 0.15 0.40 0.62 0.46 0.51 0.40 0.20 0.14 0.13 0.17 0.30 0.53 0.85 1.03 1.42 1.54 1.66 1.79 1.94 2.07 2.05 1.91 1.61 1.59 1.22 0.96 1.01 0.91 1.11 1.28 1.19 1.10 1.05 1.06 1.20 1.43 1.33
1.78 1.38 1.49 0.65 0.23 0.21 0.13 0.02 0.03 0.04 0.01 0.01 0.11 0.48 0.76 0.99 0.93 0.77 0.49 0.38 0.36 0.27 0.41 0.72 0.89 1.10 1.36 1.64 1.69 1.82 2.39 2.71 2.50 2.08 1.85 2.10 1.89 1.31 1.20 1.20 1.22 1.19 1.13 1.00 1.18 1.07 1.06 1.34 1.41
1.33 2.05 0.94 0.80 0.25 0.18 0.11 0.07 0.03 0.06 0.06 0.01 0.11 0.45 0.97 1.40 1.33 1.05 0.93 0.83 0.81 0.65 0.52 0.68 0.87 1.11 1.26 1.42 1.50 1.84 2.40 3.05 2.93 2.55 2.14 1.80 1.63 1.47 1.69 1.89 1.71 1.33 1.20 0.95 1.16 1.20 1.39 1.35 1.34
1.71 2.40 1.36 0.66 0.47 0.16 0.10 0.27 0.04 0.04 0.17 0.06 0.06 0.21 0.55 1.54 2.01 1.52 1.26 1.45 1.48 1.37 0.94 0.82 0.87 1.01 1.34 1.37 1.45 1.49 1.61 2.30 3.28 2.77 2.19 1.96 1.69 1.93 1.83 1.90 2.11 2.31 1.98 1.14 1.04 0.99 1.57 2.59 2.16
1.99 2.11 1.11 0.71 0.52 0.35 0.30 0.40 0.18 0.10 0.16 0.37 0.24 0.20 0.57 1.69 2.71 2.05 1.38 1.38 1.56 1.38 1.36 1.07 1.01 0.87 1.01 1.18 1.61 1.70 1.62 1.63 2.44 2.98 2.22 1.57 1.70 2.00 1.90 2.03 2.31 2.72 2.64 2.46 1.62 1.26 1.43 3.38 3.22
1.60 1.19 1.06 0.84 0.78 0.68 0.40 0.23 0.24 0.26 0.18 0.35 0.22 0.37 0.88 1.83 4.29 3.74 2.44 1.62 1.77 1.76 1.68 1.16 0.88 0.91 0.91 1.16 1.52 1.70 1.57 1.45 1.78 1.96 2.22 2.00 1.63 1.83 2.13 2.17 2.24 2.70 3.28 3.44 3.81 2.57 2.01 2.46 2.62
1.59 1.02 1.18 1.09 1.07 0.85 0.54 0.32 0.21 0.19 0.06 0.12 0.62 0.67 1.02 1.36 4.23 5.08 5.27 4.39 3.17 2.57 2.30 2.52 1.59 1.20 1.34 1.22 1.34 1.43 1.63 1.58 1.26 1.43 1.75 2.42 2.43 2.21 1.88 1.69 1.75 1.81 2.40 3.54 3.90 4.32 3.11 2.72 3.14
1.64 1.45 0.97 1.06 0.89 0.71 0.52 0.51 0.23 0.09 0.05 0.20 0.40 0.65 0.75 1.46 2.31 4.13 4.49 5.37 4.61 3.28 2.56 2.00 2.36 2.07 1.66 1.62 1.39 1.43 1.79 1.88 1.48 1.39 1.32 1.74 2.48 2.52 2.49 1.92 1.63 1.64 1.88 2.74 3.54 3.18 3.79 4.09 4.29
1.31 1.72 1.15 0.99 0.86 0.57 0.51 0.41 0.33 0.12 0.14 0.44 0.40 0.59 0.86 1.07 1.48 2.39 2.75 3.23 4.38 3.87 3.16 2.51 1.85 2.13 1.86 1.87 1.65 1.57 1.70 2.12 2.10 1.94 1.50 1.41 1.95 2.38 2.62 2.14 1.61 1.67 1.66 2.14 3.28 3.43 2.56 2.66 3.35
0.86 1.88 1.45 0.93 1.03 0.60 0.55 0.75 0.46 0.07 0.20 0.52 0.68 0.74 1.33 1.07 1.12 1.73 1.85 2.29 2.83 3.60 3.23 2.85 2.21 2.02 1.88 1.62 1.89 1.85 1.91 2.07 2.44 2.52 2.32 2.10 2.05 2.00 2.18 2.13 1.84 1.58 1.70 1.71 2.26 3.17 2.76 2.31 2.47
0.64 1.60 1.88 0.99 1.02 0.85 0.81 0.62 0.17 0.12 0.12 0.35 0.49 0.70 1.25 0.94 0.81 0.93 1.56 2.07 2.60 3.21 3.28 3.40 2.37 1.97 1.83 1.75 1.66 1.89 1.88 1.88 2.34 2.53 2.81 2.60 2.37 2.23 1.86 1.86 1.89 1.90 1.73 1.61 1.80 2.37 2.56 2.23 2.32
0.65 0.79 1.10 1.14 0.86 0.96 0.61 0.37 0.13 0.22 0.12 0.13 0.22 0.41 1.04 1.06 0.87 0.53 0.72 1.41 2.05 3.24 3.39 3.69 3.10 2.08 1.93 2.25 2.13 1.99 2.26 1.98 2.25 2.66 2.75 3.08 2.91 2.48 2.05 1.61 1.65 2.11 2.14 1.87 1.77 1.73 2.35 1.88 1.77
0.40 0.47 0.43 0.63 0.76 0.80 0.69 0.35 0.16 0.10 0.21 0.04 0.09 0.22 0.61 0.93 0.90 0.71 0.75 1.02 1.53 2.52 3.58 3.75 3.87 3.38 2.43 3.36 2.68 2.39 2.14 2.38 2.05 2.49 2.72 3.24 3.74 3.02 2.46 1.69 1.40 1.80 2.29 1.94 1.88 1.73 1.74 2.15 1.99
0.38 0.48 0.43 0.25 0.36 0.76 0.71 0.40 0.21 0.14 0.15 0.10 0.06 0.24 0.62 1.07 1.00 0.86 0.87 1.11 1.43 1.92 3.29 3.19 3.74 3.73 3.43 3.46 3.70 2.70 2.18 3.00 2.47 2.19 2.74 2.68 3.09 3.69 3.21 2.72 1.68 1.60 2.03 1.86 2.04 1.99 1.87 1.91 2.07
0.55 0.68 0.53 0.33 0.24 0.50 0.55 0.27 0.37 0.31 0.16 0.21 0.22 0.42 0.75 0.84 0.68 0.55 0.66 1.07 1.29 1.48 2.74 3.57 3.56 3.66 3.32 3.18 3.86 3.41 2.88 3.01 3.59 3.06 3.18 3.41 3.14 4.08 3.77 3.38 2.60 2.16 2.05 1.93 1.55 2.03 2.25 2.35 2.43
0.51 0.61 0.46 0.48 0.36 0.46 0.51 0.40 0.16 0.12 0.11 0.07 0.12 0.30 0.57 0.77 0.40 0.44 0.46 0.65 1.64 1.71 1.83 2.96 3.82 4.02 3.66 3.80 4.47 4.88 4.35 4.04 3.85 3.35 3.10 3.17 3.27 4.06 4.67 3.99 3.17 2.71 2.49 2.48 2.03 1.79 2.11 2.53 2.33
0.59 0.30 0.30 0.38 0.81 0.91 0.71 1.10 0.08 0.06 0.13 0.09 0.19 0.44 0.72 0.53 0.62 0.58 0.41 0.43 0.69 1.27 1.64 2.48 3.54 4.73 4.56 4.78 5.18 4.65 4.02 3.77 3.97 3.60 3.32 3.11 2.81 3.45 4.14 4.24 3.87 3.38 2.91 2.75 2.97 2.76 2.62 2.34 2.38
0.45 0.21 0.19 0.47 0.82 1.10 0.70 1.49 0.42 0.17 0.42 0.45 0.94 0.81 1.55 1.28 1.41 1.17 0.48 0.53 0.75 0.91 1.22 2.03 3.20 4.21 5.77 5.57 5.12 4.84 4.47 3.89 4.07 3.57 3.13 2.49 2.43 2.45 3.09 3.80 4.27 3.98 3.33 2.99 2.77 2.85 3.11 3.20 2.67
0.43 0.60 0.56 0.62 1.29 2.27 0.62 0.87 0.50 0.21 0.34 0.21 0.52 0.69 1.57 2.08 1.81 1.64 1.64 1.06 0.99 1.22 1.23 1.60 3.14 3.44 4.53 5.76 5.65 4.12 4.35 4.77 5.03 4.43 3.51 3.04 2.48 2.60 2.77 3.44 3.96 4.22 3.42 2.75 2.94 3.03 2.99 2.98 2.78
1.37 2.00 2.57 2.08 2.41 1.54 0.22 0.51 0.70 0.13 0.08 0.19 0.62 0.88 1.68 2.36 2.10 2.15 2.24 2.10 2.09 2.06 1.76 1.63 2.18 3.60 2.94 4.77 4.72 4.27 3.01 3.48 4.31 5.16 4.00 3.34 3.00 2.52 2.67 3.18 3.33 3.48 3.42 2.61 2.42 2.30 2.35 2.52 2.78
1.35 2.04 2.54 1.67 0.74 0.38 0.13 0.53 0.44 0.06 0.02 0.06 0.56 0.74 1.39 1.69 2.11 1.55 1.90 2.10 1.86 1.73 1.69 0.91 1.56 2.98 3.07 2.99 4.08 3.99 3.64 2.50 3.28 3.97 3.76 3.30 2.81 2.65 2.47 2.76 3.56 3.27 2.99 2.61 2.32 2.22 2.19 2.19 2.21
1.83 1.87 1.10 1.71 0.81 0.72 0.32 0.21 0.12 0.01 0.00 0.00 0.16 0.66 1.35 1.28 1.28 1.45 1.82 1.65 1.31 0.73 1.52 1.43 1.23 1.58 2.68 2.75 3.42 4.08 4.14 2.92 2.75 3.27 3.51 2.43 2.20 2.38 2.48 2.56 2.82 3.40 3.35 2.62 3.17 2.86 2.41 2.75 2.63
1.63 1.36 1.63 2.74 1.95 0.80 0.23 0.35 0.41 0.16 0.08 0.03 0.03 0.19 0.33 0.61 0.75 0.87 0.98 1.29 1.09 0.98 1.57 2.04 1.28 1.39 1.67 2.76 2.77 3.85 4.06 3.75 3.20 3.16 3.17 2.87 2.00 1.72 2.04 2.29 2.53 2.67 2.75 2.62 2.68 3.12 3.07 2.53 2.67
1.69 2.88 1.86 1.76 0.99 1.30 0.68 0.68 0.69 0.46 0.38 0.36 0.20 0.17 0.19 0.24 0.30 0.24 0.16 0.16 0.44 0.77 1.20 1.59 1.67 1.37 1.56 1.93 2.90 3.70 5.12 3.67 4.55 4.05 3.05 2.83 2.27 1.63 1.58 1.59 2.05 2.34 2.24 2.04 2.34 2.40 2.65 3.15 2.83
1.14 1.66 2.04 1.77 1.18 1.10 1.42 1.21 0.44 0.64 0.71 0.88 0.70 0.48 0.33 0.31 0.16 0.18 0.10 0.05 0.20 0.46 0.72 1.48 2.32 1.54 2.02 2.15 2.92 3.12 3.87 4.67 4.50 5.42 4.43 3.28 2.79 1.85 1.54 1.52 1.65 1.91 1.78 1.91 2.29 2.23 2.34 2.42 2.48